[[{"header":{"parameterUnit":"m.s-1","parameterCategory":2,"la1":30.2991,"la2":30.254,"lo1":-89.0895,"lo2":-89.0444,"dy":0.0017,"dx":0.0017,"nx":28,"ny":28,"refTime":"2023-04-02T21:00:00:Z","depth":"0","parameterNumber":2,"parameterNumberName":"U-component_of_CURRENTS"},"data":[0,0,0,0,0,0,0,0,0,0,0,0,0,0,0,0,0,0,0,0,0,0,0,0,0,0,0,0,0,0,0,0,0,0,0,0,0,0,0,0,0,0,0,0,0,0,0,0,0,0,0,0,0,0,0,0,0,0,0.3574,0.3575,0,0.3633,0.3634,0.3634,0.3521,0.3518,0.3515,0.3512,0.3589,0.3594,0.3599,0,0,0,0,0,0,0,0,0,0,0,0,0,0.3323,0.3328,0.3574,0.3575,0.3577,0.3633,0.3634,0.3634,0.3522,0.3518,0.3514,0.3511,0.3587,0.3593,0.3599,0,0,0,0,0,0,0,0,0,0,0,0,0,0.3407,0.333,0.3574,0.3532,0.3529,0.3633,0.3634,0.3634,0.3523,0.3518,0.3513,0.3509,0.3585,0.3593,0.36,0.3742,0,0,0.3623,0.3626,0,0,0,0,0,0,0,0,0.3402,0.3415,0.3537,0.3535,0.3532,0.357,0.3573,0.3673,0.3524,0.3519,0.3512,0.3506,0.3592,0.3599,0.3612,0.3745,0.3749,0.3624,0.3628,0.3632,0.3634,0,0,0,0,0,0,0,0.3397,0.3412,0.3591,0.3539,0.3536,0.3497,0.3503,0.3591,0.3577,0.3519,0.3513,0.353,0.3589,0.3605,0.3613,0.375,0.3624,0.363,0.3635,0.3638,0.3885,0.3887,0,0,0,0,0,0,0.341,0.3408,0.359,0.3594,0.3461,0.3506,0.3512,0.3558,0.3576,0.3575,0.3534,0.3525,0.3594,0.3604,0.3615,0.3704,0.3631,0.3638,0.3643,0.3883,0.3885,0.3887,0,0,0,0,0,0,0.3405,0.3427,0.3587,0.3504,0.3522,0.3516,0.3568,0.3562,0.3568,0.3588,0.3585,0.3545,0.3591,0.3605,0.368,0.3708,0.3642,0.3649,0.388,0.3883,0.3886,0.3933,0,0,0,0,0,0,0.3398,0.3426,0.3468,0.3507,0.3528,0.3665,0.3573,0.3567,0.359,0.3577,0.3599,0.36,0.3588,0.3669,0.3688,0.3717,0.3655,0.3878,0.3882,0.3885,0.3929,0.3937,0.3945,0,0,0,0,0,0.339,0.3466,0.347,0.3492,0.3586,0.3669,0.3677,0.3649,0.3595,0.3629,0.3619,0.3598,0.3705,0.3679,0.37,0.3732,0.3876,0.388,0.3885,0.3925,0.3936,0.3944,0,0,0,0,0,0,0.338,0.3464,0.3468,0.3567,0.3623,0.3652,0.3686,0.3671,0.3692,0.3668,0.3656,0.3661,0.3733,0.3744,0.3715,0.3812,0.3778,0.3787,0.3801,0.3812,0.3819,0.3775,0.3661,0,0,0,0,0,0.3407,0.3482,0.355,0.3631,0.3662,0.3679,0.3708,0.3697,0.3721,0.3722,0.3728,0.3739,0.3779,0.3799,0.3843,0.3929,0.3932,0.3953,0.3961,0.3968,0.3946,0.4027,0.4039,0.3903,0.3902,0.3902,0,0,0.3433,0.3484,0.3531,0.3634,0.3666,0.3734,0.3683,0.3742,0.3766,0.3739,0.3772,0.379,0.3812,0.3875,0.3907,0.3881,0.4005,0.3974,0.3979,0.3953,0.4033,0.4046,0.4058,0.3906,0.3905,0.3905,0,0,0.3519,0.3565,0.3655,0.3708,0.3778,0.3785,0.3808,0.3849,0.3829,0.39,0.3857,0.3877,0.3966,0.3949,0.3962,0.4054,0.4055,0.408,0.4078,0.4159,0.417,0.418,0.4179,0.4189,0.4071,0.4072,0.4072,0,0.3564,0.3657,0.3694,0.3783,0.3809,0.3811,0.3879,0.3898,0.3943,0.3916,0.3914,0.3959,0.3987,0.4012,0.4028,0.4068,0.4099,0.4039,0.4168,0.4178,0.4188,0.4185,0.4195,0.4074,0.4074,0.4074,0.4073,0,0.3706,0.3772,0.3827,0.3923,0.3959,0.4025,0.4042,0.405,0.4022,0.401,0.4026,0.4054,0.4055,0.4083,0.4091,0.4155,0.4149,0.418,0.4139,0.4204,0.4197,0.4206,0.4078,0.4077,0.4077,0.4076,0,0,0.3832,0.3916,0.3931,0.3943,0.402,0.4049,0.4084,0.4088,0.4048,0.4093,0.4058,0.4122,0.4089,0.4101,0.4108,0.4167,0.4262,0.4206,0.4209,0.4192,0.4404,0.4104,0.4085,0.4345,0.4348,0.435,0.4362,0,0.3932,0.4055,0.4072,0.4143,0.4185,0.4161,0.417,0.4157,0.4124,0.41,0.4092,0.4094,0.4114,0.4109,0.4178,0.4242,0.4295,0.4252,0.4351,0.4351,0.4069,0.4089,0.3806,0.3769,0.4371,0.4373,0.4374,0,0.4053,0.41,0.4185,0.4162,0.4177,0.4209,0.4134,0.4151,0.4108,0.408,0.4066,0.4064,0.4106,0.4145,0.4267,0.4252,0.4331,0.4383,0.4386,0.4088,0.4069,0.3808,0.3763,0.3637,0.4389,0.4387,0.4386,0,0.4054,0.4149,0.4179,0.4203,0.422,0.4199,0.4182,0.4128,0.4087,0.4062,0.4029,0.4072,0.4081,0.4214,0.4277,0.4316,0.4408,0.4475,0.4264,0.4242,0.3999,0.3949,0.3823,0.4588,0.4588,0.4588,0.4588,0,0.4126,0.4142,0.4173,0.4201,0.418,0.4183,0.4127,0.4103,0.4055,0.3995,0.4018,0.3981,0.4119,0.416,0.4273,0.4233,0.4405,0.423,0.4224,0.4,0.3952,0.3825,0.3794,0.4588,0.4588,0.4588,0.4588,0,0.4124,0.4161,0.4186,0.4199,0.4188,0.4168,0.4108,0.4052,0.4018,0.3951,0.3949,0.3939,0.3947,0.4017,0.4174,0.4152,0.4027,0.4162,0.3819,0.3767,0.3377,0.3358,0.3104,0.3056,0.3911,0.3904,0.3898,0,0.4139,0.4161,0.4179,0.4172,0.4179,0.4141,0.4093,0.4044,0.3978,0.3905,0.3867,0.3831,0.3754,0.3759,0.3714,0.3728,0.375,0.3468,0.3464,0.3257,0.3241,0.3197,0.3181,0.3187,0.3175,0.3166,0.3158,0,0.4166,0.4168,0.4192,0.4164,0.4131,0.4067,0.3999,0.3938,0.3858,0.3792,0.367,0.3605,0.3472,0.3267,0.3188,0.3196,0.3184,0.3264,0.3198,0.273,0.2536,0.2518,0.3247,0.3074,0.3082,0.3088,0.3093,0.3096,0.4183,0.4179,0.419,0.4139,0.4087,0.3964,0.3845,0.3763,0.3635,0.3428,0.349,0.3258,0.2989,0.2777,0.2731,0.2353,0.2574,0.2281,0.2299,0.2297,0.2133,0.258,0.2299,0.2303,0.2306,0.2309,0.2312,0,0.4176,0.4161,0.4145,0.4045,0.3918,0.3914,0.374,0.3561,0.3349,0.3201,0.3061,0.2642,0.2331,0.209,0.1659,0.1472,0.1511,0.1402,0.1363,0.1433,0.1946,0.1792,0.1204,0.1204,0.1205,0.1205,0.1205,0.1205,0.419,0.4148,0.4104,0.3892,0.3794,0.3536,0.3402,0.3169,0.2981,0.2547,0.2216,0.2087,0.174,0.1234,0.0848,0.0811,0.083,0.0612,0.0827,0.1232,0.1321,0.1406,0.1256,0.0565,0.0565,0.0248,0.0245,0.0242]},{"header":{"parameterUnit":"m.s-1","parameterCategory":2,"la1":30.2991,"la2":30.254,"lo1":-89.0895,"lo2":-89.0444,"dy":0.0017,"dx":0.0017,"nx":28,"ny":28,"refTime":"2023-04-02T21:00:00:Z","depth":"0","parameterNumber":3,"parameterNumberName":"V-component_of_CURRENTS"},"data":[0,0,0,0,0,0,0,0,0,0,0,0,0,0,0,0,0,0,0,0,0,0,0,0,0,0,0,0,0,0,0,0,0,0,0,0,0,0,0,0,0,0,0,0,0,0,0,0,0,0,0,0,0,0,0,0,0,0,0.0446,0.0448,0,0.0554,0.0555,0.0556,0.0568,0.0567,0.0567,0.0566,0.0694,0.0698,0.0702,0,0,0,0,0,0,0,0,0,0,0,0,0,0.0292,0.0294,0.0446,0.0448,0.045,0.0554,0.0555,0.0556,0.0568,0.0567,0.0566,0.0566,0.0693,0.0698,0.0702,0,0,0,0,0,0,0,0,0,0,0,0,0,0.0369,0.0294,0.0446,0.0473,0.0477,0.0554,0.0555,0.0556,0.0568,0.0567,0.0566,0.0565,0.0692,0.0697,0.0703,0.0755,0,0,0.0721,0.0723,0,0,0,0,0,0,0,0,0.0365,0.0374,0.0467,0.0471,0.0476,0.0552,0.0548,0.0626,0.0568,0.0527,0.0566,0.0565,0.0653,0.0662,0.0675,0.0761,0.0766,0.0721,0.0725,0.0727,0.0729,0,0,0,0,0,0,0,0.0359,0.037,0.0482,0.0469,0.0475,0.0495,0.0504,0.0563,0.0589,0.053,0.0533,0.0555,0.0655,0.0669,0.0678,0.0768,0.0721,0.0726,0.073,0.0732,0.0927,0.0928,0,0,0,0,0,0,0.0358,0.0365,0.0479,0.0486,0.0424,0.0498,0.0508,0.0523,0.0588,0.0598,0.0556,0.0555,0.066,0.0672,0.0683,0.0776,0.0727,0.0733,0.0736,0.0925,0.0927,0.0929,0,0,0,0,0,0,0.0354,0.0366,0.0475,0.0433,0.0449,0.0502,0.0519,0.0526,0.0539,0.0608,0.0617,0.0561,0.066,0.0675,0.0746,0.078,0.0736,0.0741,0.0923,0.0926,0.0928,0.0944,0,0,0,0,0,0,0.0348,0.0364,0.0368,0.0433,0.0452,0.0532,0.0521,0.0529,0.0557,0.0557,0.0617,0.0627,0.066,0.0737,0.0752,0.0787,0.0745,0.0921,0.0924,0.0927,0.0941,0.0947,0.0951,0,0,0,0,0,0.0342,0.0362,0.0367,0.0382,0.0457,0.0534,0.0545,0.0576,0.0558,0.0578,0.0615,0.0625,0.0767,0.0744,0.0761,0.0798,0.092,0.0924,0.0927,0.0939,0.0946,0.0951,0,0,0,0,0,0,0.0301,0.0368,0.0375,0.0413,0.0472,0.0538,0.0565,0.0574,0.0617,0.0616,0.0653,0.0669,0.0744,0.077,0.0743,0.0863,0.0843,0.085,0.0847,0.0853,0.0858,0.0875,0.075,0,0,0,0,0,0.0294,0.0325,0.0392,0.0426,0.0454,0.0502,0.0532,0.0558,0.061,0.0625,0.0662,0.0711,0.0774,0.0809,0.0866,0.0936,0.0957,0.0969,0.0974,0.0978,0.1004,0.1082,0.1097,0.0941,0.0941,0.0941,0,0,0.0298,0.0332,0.0355,0.042,0.0463,0.0522,0.0517,0.0577,0.0619,0.0637,0.0694,0.0733,0.0797,0.0875,0.091,0.09,0.1023,0.0983,0.0986,0.101,0.1088,0.1103,0.1116,0.0944,0.0943,0.0943,0,0,0.0333,0.0342,0.0388,0.0435,0.0506,0.0538,0.0552,0.0618,0.0636,0.0706,0.0727,0.079,0.0871,0.093,0.097,0.1039,0.1046,0.1044,0.1089,0.1164,0.1177,0.119,0.1184,0.1196,0.1047,0.1047,0.1047,0,0.0333,0.0389,0.0416,0.0473,0.0511,0.0542,0.0601,0.0639,0.0715,0.0746,0.073,0.087,0.0908,0.1025,0.1041,0.1054,0.1067,0.1057,0.117,0.1184,0.1196,0.1188,0.1201,0.1048,0.1048,0.1048,0.1048,0,0.0409,0.0452,0.0485,0.0556,0.0597,0.0656,0.0711,0.0746,0.0758,0.0804,0.0902,0.096,0.1048,0.1061,0.1074,0.1185,0.1152,0.1164,0.1152,0.1213,0.1199,0.1213,0.105,0.105,0.1049,0.1049,0,0,0.0416,0.0517,0.0529,0.0565,0.064,0.0684,0.0749,0.0828,0.0883,0.0939,0.1029,0.1114,0.1138,0.1186,0.1211,0.1269,0.1336,0.125,0.1253,0.1237,0.1446,0.1398,0.1406,0.1367,0.1371,0.1374,0.1381,0,0.0467,0.0572,0.0604,0.0693,0.0748,0.078,0.0839,0.0909,0.0964,0.1058,0.1126,0.1222,0.1189,0.1238,0.1295,0.1355,0.1381,0.133,0.1398,0.1399,0.1345,0.1426,0.1394,0.1398,0.1394,0.1397,0.1398,0,0.0535,0.0585,0.0683,0.0757,0.0781,0.0828,0.0913,0.0978,0.1106,0.1155,0.1259,0.1318,0.1432,0.1389,0.15,0.1467,0.1455,0.147,0.1472,0.1443,0.1379,0.135,0.1422,0.1467,0.1419,0.1417,0.1415,0,0.0539,0.0638,0.0704,0.0736,0.083,0.086,0.09,0.1009,0.1084,0.1232,0.1317,0.1438,0.153,0.1565,0.1581,0.1555,0.168,0.165,0.1577,0.1569,0.1567,0.1555,0.1696,0.171,0.171,0.171,0.171,0,0.0593,0.0647,0.0707,0.075,0.0808,0.0865,0.0958,0.1018,0.1158,0.1287,0.1369,0.1501,0.1587,0.1664,0.1636,0.1655,0.172,0.1609,0.1599,0.1563,0.1551,0.1609,0.1615,0.171,0.171,0.171,0.171,0,0.0629,0.0679,0.0743,0.0807,0.0826,0.0867,0.0973,0.1061,0.1172,0.1352,0.1408,0.1585,0.1685,0.1711,0.1786,0.1736,0.1759,0.171,0.162,0.16,0.157,0.1575,0.1683,0.1747,0.1652,0.1652,0.1651,0,0.0677,0.0715,0.0762,0.079,0.082,0.0887,0.0953,0.106,0.1171,0.1405,0.1509,0.1659,0.179,0.1851,0.1795,0.1739,0.1749,0.1645,0.1606,0.1596,0.1596,0.1595,0.1642,0.1577,0.1576,0.1575,0.1574,0,0.0737,0.0737,0.0776,0.0822,0.0873,0.095,0.105,0.1141,0.131,0.1463,0.1674,0.1793,0.1856,0.1858,0.1774,0.1709,0.169,0.1622,0.1682,0.1621,0.1567,0.1612,0.1483,0.1566,0.1567,0.1567,0.1568,0.1568,0.0762,0.0776,0.0811,0.0859,0.092,0.1026,0.111,0.1248,0.1429,0.1683,0.1774,0.1955,0.1929,0.1839,0.1759,0.1604,0.1642,0.1567,0.1586,0.1595,0.1648,0.1461,0.1496,0.1496,0.1497,0.1497,0.1497,0,0.0785,0.0807,0.0853,0.092,0.1,0.1033,0.1194,0.1301,0.1516,0.1739,0.192,0.1985,0.1957,0.1846,0.1643,0.16,0.1595,0.1588,0.1613,0.1677,0.1572,0.1563,0.1533,0.1533,0.1533,0.1533,0.1533,0.1533,0.0807,0.0839,0.0859,0.0986,0.1047,0.1169,0.1268,0.1426,0.1593,0.1804,0.1907,0.2007,0.1969,0.1768,0.1673,0.1637,0.1735,0.165,0.1762,0.1693,0.1693,0.1694,0.1692,0.1689,0.1689,0.1872,0.1873,0.1874]}],[{"header":{"parameterUnit":"m.s-1","parameterCategory":2,"la1":30.2991,"la2":30.254,"lo1":-89.0895,"lo2":-89.0444,"dy":0.0017,"dx":0.0017,"nx":28,"ny":28,"refTime":"2023-04-02T21:00:00:Z","depth":"2","parameterNumber":2,"parameterNumberName":"U-component_of_CURRENTS"},"data":[0,0,0,0,0,0,0,0,0,0,0,0,0,0,0,0,0,0,0,0,0,0,0,0,0,0,0,0,0,0,0,0,0,0,0,0,0,0,0,0,0,0,0,0,0,0,0,0,0,0,0,0,0,0,0,0,0,0,0.2387,0.239,0,0.2609,0.2611,0.2612,0.2644,0.2643,0.2641,0.264,0.2891,0.2899,0.2907,0,0,0,0,0,0,0,0,0,0,0,0,0,0.2268,0.2267,0.2387,0.2391,0.2394,0.2608,0.2611,0.2613,0.2644,0.2643,0.2641,0.264,0.2889,0.2898,0.2907,0,0,0,0,0,0,0,0,0,0,0,0,0,0.2378,0.2267,0.2386,0.2442,0.245,0.2608,0.2611,0.2613,0.2644,0.2643,0.2641,0.2639,0.2886,0.2897,0.2909,0.3018,0,0,0.2945,0.295,0,0,0,0,0,0,0,0,0.2372,0.2381,0.243,0.2439,0.2448,0.2605,0.2662,0.2753,0.2645,0.2561,0.264,0.2638,0.2806,0.2824,0.2856,0.303,0.3041,0.2946,0.2953,0.2958,0.2961,0,0,0,0,0,0,0,0.2363,0.2374,0.2466,0.2435,0.2445,0.2552,0.2562,0.268,0.2684,0.2568,0.2573,0.2613,0.2809,0.2845,0.2863,0.3044,0.2945,0.2956,0.2963,0.2968,0.3392,0.3396,0,0,0,0,0,0,0.2342,0.2365,0.2459,0.2473,0.2415,0.2555,0.2566,0.2549,0.2683,0.2704,0.2614,0.2614,0.2826,0.2849,0.2872,0.3078,0.2958,0.2969,0.2976,0.3388,0.3393,0.3397,0,0,0,0,0,0,0.2337,0.2345,0.245,0.2435,0.2457,0.2558,0.254,0.2554,0.2624,0.2719,0.2738,0.2673,0.2825,0.2855,0.2963,0.3085,0.2974,0.2985,0.3383,0.3389,0.3395,0.3446,0,0,0,0,0,0,0.2332,0.2341,0.2332,0.2431,0.2457,0.2511,0.2543,0.256,0.2654,0.2655,0.2777,0.2795,0.2826,0.2945,0.2974,0.3099,0.2994,0.3377,0.3386,0.3393,0.3439,0.3454,0.3466,0,0,0,0,0,0.2326,0.2308,0.2328,0.2342,0.2434,0.2512,0.2532,0.2596,0.2659,0.266,0.275,0.2793,0.3018,0.2956,0.299,0.3121,0.3373,0.3383,0.3392,0.3433,0.3451,0.3465,0,0,0,0,0,0,0.227,0.2314,0.2337,0.2338,0.2409,0.2519,0.256,0.2631,0.2712,0.2746,0.2826,0.2849,0.3005,0.3051,0.2981,0.3268,0.3216,0.3232,0.3236,0.3253,0.3266,0.3188,0.3004,0,0,0,0,0,0.2252,0.2236,0.2317,0.2326,0.2363,0.2481,0.2537,0.2594,0.2686,0.2723,0.2833,0.2957,0.3074,0.3141,0.3242,0.339,0.3377,0.3506,0.3519,0.353,0.3492,0.3563,0.3577,0.3428,0.3428,0.3428,0,0,0.2242,0.2268,0.2264,0.2314,0.2388,0.2486,0.2506,0.2603,0.2712,0.2746,0.2932,0.3013,0.3122,0.3272,0.3352,0.3324,0.357,0.3542,0.355,0.3505,0.3574,0.3588,0.36,0.3435,0.3434,0.3433,0,0,0.2282,0.2235,0.2281,0.2347,0.2464,0.2504,0.2543,0.2689,0.2758,0.2917,0.2996,0.3095,0.3315,0.3379,0.3449,0.36,0.3638,0.3707,0.3718,0.3789,0.38,0.3809,0.3809,0.3818,0.3713,0.3714,0.3714,0,0.2294,0.2338,0.2313,0.2425,0.2494,0.2525,0.2645,0.2723,0.2898,0.2958,0.2975,0.3264,0.3349,0.3514,0.3562,0.3629,0.3658,0.3643,0.38,0.3809,0.3817,0.3815,0.3824,0.3717,0.3717,0.3716,0.3716,0,0.2423,0.2466,0.2505,0.2616,0.267,0.2754,0.2854,0.2926,0.3014,0.3101,0.3274,0.3361,0.3507,0.3595,0.3625,0.3779,0.3776,0.3803,0.3739,0.3834,0.3828,0.3836,0.3722,0.3721,0.372,0.3719,0,0,0.2446,0.2564,0.2591,0.2632,0.2775,0.28,0.2958,0.3051,0.3125,0.3275,0.3392,0.3571,0.3595,0.367,0.3752,0.3803,0.3889,0.3837,0.3839,0.3798,0.4021,0.361,0.3579,0.3972,0.3975,0.3976,0.3988,0,0.2572,0.2736,0.2783,0.2907,0.2976,0.3015,0.3134,0.3225,0.3286,0.3389,0.3474,0.3609,0.3644,0.3715,0.3783,0.3877,0.3917,0.388,0.3966,0.3965,0.3558,0.3576,0.3368,0.3325,0.3996,0.3997,0.3998,0,0.2747,0.2782,0.2957,0.2983,0.302,0.3114,0.3176,0.3284,0.3409,0.3474,0.358,0.3646,0.3769,0.3771,0.392,0.3915,0.3963,0.3996,0.3999,0.3584,0.3566,0.3346,0.3314,0.4011,0.401,0.4009,0.4008,0,0.2779,0.2893,0.2985,0.3034,0.3116,0.3185,0.3214,0.3336,0.3395,0.3524,0.3561,0.3711,0.379,0.3886,0.3939,0.3973,0.4041,0.4103,0.3761,0.3734,0.3541,0.3487,0.4172,0.4172,0.4172,0.4172,0.4171,0,0.2894,0.294,0.2994,0.3057,0.3099,0.3181,0.3259,0.3322,0.3434,0.3484,0.3604,0.3647,0.3829,0.3881,0.3944,0.3819,0.4054,0.3709,0.3694,0.3548,0.3497,0.4085,0.4075,0.4172,0.4172,0.4172,0.4172,0,0.2926,0.3019,0.3081,0.3141,0.3158,0.3193,0.3258,0.3263,0.3403,0.3475,0.352,0.364,0.3657,0.3736,0.3857,0.3755,0.3724,0.3633,0.3379,0.3323,0.3378,0.3372,0.3245,0.3231,0.3218,0.3208,0.3199,0,0.2962,0.3017,0.31,0.3122,0.3156,0.319,0.3202,0.3288,0.3291,0.3435,0.344,0.349,0.3455,0.3378,0.3248,0.3161,0.3415,0.2854,0.2812,0.3275,0.3278,0.3292,0.3302,0.2641,0.2628,0.2618,0.261,0,0.2912,0.2984,0.2986,0.3052,0.3082,0.3079,0.3101,0.3103,0.3194,0.3226,0.3261,0.3248,0.3111,0.2837,0.2608,0.2559,0.2827,0.2615,0.3263,0.2816,0.2681,0.269,0.2728,0.2518,0.2527,0.2534,0.2539,0.2543,0.283,0.281,0.285,0.2896,0.2935,0.295,0.2939,0.2871,0.2857,0.2821,0.2954,0.2773,0.2682,0.2119,0.1998,0.1874,0.2084,0.2029,0.2077,0.2131,0.1967,0.1806,0.145,0.1452,0.1455,0.1457,0.1459,0,0.2634,0.2646,0.2656,0.2703,0.2682,0.2833,0.2825,0.271,0.2586,0.2466,0.2417,0.2016,0.1708,0.1654,0.1292,0.1143,0.132,0.1107,0.1409,0.1495,0.1573,0.1397,0.0721,0.0719,0.0717,0.0715,0,0,0.2531,0.2442,0.2454,0.2422,0.252,0.2543,0.2588,0.2343,0.2186,0.1851,0.1656,0.1614,0.1567,0.1122,0.1019,0.0839,0.1195,0.0785,0.1379,0.1826,0.1904,0.2085,0.1899,0,0,0,0,0]},{"header":{"parameterUnit":"m.s-1","parameterCategory":2,"la1":30.2991,"la2":30.254,"lo1":-89.0895,"lo2":-89.0444,"dy":0.0017,"dx":0.0017,"nx":28,"ny":28,"refTime":"2023-04-02T21:00:00:Z","depth":"2","parameterNumber":3,"parameterNumberName":"V-component_of_CURRENTS"},"data":[0,0,0,0,0,0,0,0,0,0,0,0,0,0,0,0,0,0,0,0,0,0,0,0,0,0,0,0,0,0,0,0,0,0,0,0,0,0,0,0,0,0,0,0,0,0,0,0,0,0,0,0,0,0,0,0,0,0,-0.0233,-0.0231,0,-0.0097,-0.0096,-0.0095,0.0006,0.0007,0.0009,0.001,0.0138,0.014,0.0142,0,0,0,0,0,0,0,0,0,0,0,0,0,-0.0231,-0.0233,-0.0233,-0.0231,-0.0229,-0.0097,-0.0096,-0.0095,0.0006,0.0007,0.0009,0.0011,0.0137,0.0139,0.0142,0,0,0,0,0,0,0,0,0,0,0,0,0,-0.0184,-0.0234,-0.0234,-0.0158,-0.015,-0.0097,-0.0096,-0.0094,0.0005,0.0007,0.001,0.0012,0.0136,0.0139,0.0142,0.0118,0,0,0.0151,0.0153,0,0,0,0,0,0,0,0,-0.0187,-0.0185,-0.0172,-0.0163,-0.0154,-0.0055,-0.0048,-0.0022,0.0005,-0.006,0.001,0.0013,0.0075,0.0083,0.0095,0.0124,0.0129,0.0152,0.0154,0.0155,0.0156,0,0,0,0,0,0,0,-0.019,-0.0189,-0.0185,-0.0169,-0.0158,-0.0071,-0.0064,-0.0042,-0.0011,-0.0054,-0.0045,-0.0021,0.0079,0.0092,0.0099,0.0131,0.0152,0.0154,0.0156,0.0157,0.035,0.0353,0,0,0,0,0,0,-0.0207,-0.0194,-0.019,-0.0181,-0.0158,-0.0073,-0.0065,-0.0094,-0.0011,0.0006,-0.0023,-0.0017,0.0086,0.0095,0.0104,0.022,0.0155,0.0158,0.016,0.0347,0.0351,0.0354,0,0,0,0,0,0,-0.0209,-0.0211,-0.0195,-0.0175,-0.0166,-0.0076,-0.0108,-0.0092,-0.0064,0.0014,0.003,-0.0008,0.0088,0.01,0.0103,0.022,0.0159,0.0162,0.0343,0.0348,0.0353,0.0362,0,0,0,0,0,0,-0.0211,-0.0214,-0.0245,-0.0179,-0.0168,-0.0178,-0.0109,-0.0091,-0.005,-0.004,0.0031,0.0045,0.009,0.0098,0.0106,0.0224,0.0164,0.0339,0.0345,0.0351,0.0358,0.0367,0.0374,0,0,0,0,0,-0.0212,-0.026,-0.0249,-0.0246,-0.0215,-0.0178,-0.0167,-0.0095,-0.0051,-0.0059,-0.0019,0.0044,0.0149,0.0098,0.0108,0.023,0.0336,0.0344,0.0351,0.0354,0.0365,0.0374,0,0,0,0,0,0,-0.0275,-0.0252,-0.0238,-0.0279,-0.0238,-0.0159,-0.0151,-0.0101,-0.0074,-0.0063,0.001,0.0024,0.0092,0.0137,0.0081,0.0313,0.0284,0.0294,0.0284,0.0295,0.0303,0.0295,0.0167,0,0,0,0,0,-0.0308,-0.0346,-0.0292,-0.0328,-0.0308,-0.0233,-0.0207,-0.0162,-0.0118,-0.0101,-0.0032,0.0053,0.0129,0.0181,0.023,0.0307,0.0318,0.042,0.0428,0.0435,0.0441,0.0517,0.0532,0.0379,0.0379,0.0378,0,0,-0.034,-0.0333,-0.0353,-0.0344,-0.0304,-0.0267,-0.0214,-0.0185,-0.013,-0.0096,-0.0014,0.0045,0.0142,0.0241,0.0289,0.0298,0.0481,0.0444,0.0449,0.0451,0.0526,0.0541,0.0553,0.0384,0.0383,0.0382,0,0,-0.0389,-0.042,-0.044,-0.04,-0.0347,-0.0311,-0.0303,-0.0218,-0.016,-0.0118,-0.0026,0.007,0.0167,0.0294,0.0363,0.0441,0.0492,0.0516,0.0585,0.0659,0.0671,0.0682,0.068,0.0691,0.0557,0.0557,0.0557,0,-0.0425,-0.0439,-0.0437,-0.0409,-0.0361,-0.0328,-0.0289,-0.0241,-0.0155,-0.0074,-0.0096,0.0146,0.0203,0.0407,0.0451,0.0466,0.0482,0.0529,0.0665,0.0677,0.0688,0.0683,0.0695,0.0559,0.0559,0.0558,0.0558,0,-0.0445,-0.0442,-0.0444,-0.0409,-0.0375,-0.0349,-0.0267,-0.0216,-0.0156,-0.0057,0.0113,0.0184,0.0366,0.0429,0.0449,0.064,0.0612,0.0629,0.0624,0.0703,0.0694,0.0706,0.0561,0.056,0.056,0.0559,0,0,-0.055,-0.0476,-0.047,-0.0431,-0.036,-0.0339,-0.0253,-0.0136,-0.0017,0.0062,0.0256,0.038,0.048,0.0564,0.0666,0.0733,0.0798,0.0724,0.0727,0.0692,0.0912,0.0851,0.0857,0.0841,0.0844,0.0847,0.0859,0,-0.0556,-0.0504,-0.0461,-0.0406,-0.0363,-0.0286,-0.0191,-0.0074,0.0039,0.0225,0.0366,0.0554,0.0527,0.0655,0.0716,0.0814,0.0837,0.0789,0.0868,0.0869,0.0783,0.0873,0.0813,0.0818,0.0871,0.0873,0.0874,0,-0.0549,-0.0526,-0.0449,-0.0354,-0.0325,-0.0283,-0.0108,-0.0009,0.0248,0.0368,0.0575,0.0703,0.0902,0.0828,0.0966,0.0943,0.0915,0.092,0.0922,0.0873,0.0832,0.0762,0.0838,0.0894,0.0892,0.0891,0.0889,0,-0.056,-0.0507,-0.045,-0.0411,-0.03,-0.0237,-0.0171,0.0056,0.0209,0.0508,0.067,0.0882,0.1049,0.1054,0.1074,0.1045,0.1152,0.1125,0.1012,0.1004,0.0973,0.0958,0.1143,0.1143,0.1143,0.1143,0.1143,0,-0.0535,-0.0492,-0.0458,-0.0407,-0.033,-0.0241,-0.0082,0.0064,0.0332,0.0575,0.0768,0.0987,0.1111,0.1207,0.114,0.1128,0.1208,0.1029,0.1028,0.0971,0.0957,0.1047,0.1035,0.1143,0.1143,0.1143,0.1143,0,-0.0489,-0.0456,-0.0383,-0.0316,-0.0305,-0.0221,-0.0058,0.008,0.0336,0.0667,0.0786,0.1112,0.1251,0.128,0.1334,0.1245,0.121,0.1149,0.1036,0.1021,0.0977,0.0967,0.1058,0.1056,0.1055,0.1054,0.1053,0,-0.0443,-0.0415,-0.0335,-0.0301,-0.0267,-0.0181,-0.0103,0.0098,0.0272,0.0735,0.0906,0.1173,0.1385,0.1422,0.1311,0.1197,0.1184,0.1037,0.0967,0.0992,0.0981,0.0972,0.0964,0.091,0.0909,0.0907,0.0906,0,-0.0409,-0.0367,-0.0311,-0.0246,-0.019,-0.01,0.0022,0.0168,0.0477,0.0751,0.1139,0.1347,0.1436,0.1393,0.1244,0.113,0.1065,0.0997,0.1128,0.0934,0.0853,0.0842,0.0839,0.0891,0.0893,0.0894,0.0894,0.0895,-0.0381,-0.0337,-0.0285,-0.0196,-0.013,0.0011,0.0167,0.0327,0.0627,0.1114,0.1227,0.1499,0.145,0.1263,0.1119,0.0932,0.0951,0.0859,0.0864,0.0872,0.0846,0.0768,0.0779,0.078,0.0781,0.0781,0.0782,0,-0.0367,-0.0342,-0.0278,-0.0149,-0.005,0.0005,0.0268,0.0479,0.0848,0.1122,0.144,0.1362,0.131,0.1193,0.0894,0.0759,0.0743,0.0704,0.0717,0.073,0.0742,0.0711,0.0608,0.0608,0.0608,0.0607,0,0,-0.0366,-0.0314,-0.0266,-0.0116,-0.0011,0.0228,0.0447,0.0785,0.1021,0.1307,0.1403,0.1548,0.1345,0.1102,0.0925,0.0764,0.0776,0.0718,0.086,0.0907,0.0922,0.0823,0.0789,0,0,0,0,0]}],[{"header":{"parameterUnit":"m.s-1","parameterCategory":2,"la1":30.2991,"la2":30.254,"lo1":-89.0895,"lo2":-89.0444,"dy":0.0017,"dx":0.0017,"nx":28,"ny":28,"refTime":"2023-04-02T21:00:00:Z","depth":"4","parameterNumber":2,"parameterNumberName":"U-component_of_CURRENTS"},"data":[0,0,0,0,0,0,0,0,0,0,0,0,0,0,0,0,0,0,0,0,0,0,0,0,0,0,0,0,0,0,0,0,0,0,0,0,0,0,0,0,0,0,0,0,0,0,0,0,0,0,0,0,0,0,0,0,0,0,-0.0217,-0.0217,0,-0.0285,-0.0287,-0.0288,-0.0195,-0.0191,-0.0187,-0.0183,-0.0179,-0.0183,-0.0187,0,0,0,0,0,0,0,0,0,0,0,0,0,0.0056,0.0049,-0.0217,-0.0217,-0.0218,-0.0285,-0.0287,-0.0288,-0.0195,-0.0191,-0.0186,-0.0181,-0.0178,-0.0183,-0.0187,0,0,0,0,0,0,0,0,0,0,0,0,0,-0.005,0.0047,-0.0217,-0.0174,-0.017,-0.0285,-0.0287,-0.0289,-0.0196,-0.019,-0.0184,-0.0179,-0.0177,-0.0182,-0.0188,-0.0342,0,0,-0.0204,-0.0207,0,0,0,0,0,0,0,0,-0.0044,-0.0061,-0.018,-0.0177,-0.0173,-0.0219,-0.0189,-0.03,-0.0198,-0.0194,-0.0183,-0.0176,-0.0186,-0.019,-0.0228,-0.0342,-0.0342,-0.0205,-0.0208,-0.021,-0.0212,0,0,0,0,0,0,0,-0.0037,-0.0057,-0.0252,-0.0181,-0.0176,-0.0129,-0.0139,-0.021,-0.0227,-0.0194,-0.0186,-0.0184,-0.0183,-0.0223,-0.0227,-0.0342,-0.0205,-0.0209,-0.0213,-0.0215,-0.0201,-0.0197,0,0,0,0,0,0,-0.0026,-0.0052,-0.0249,-0.0253,-0.0084,-0.0138,-0.015,-0.0216,-0.0228,-0.0222,-0.0189,-0.0179,-0.0217,-0.022,-0.0226,-0.0113,-0.021,-0.0216,-0.0219,-0.0204,-0.02,-0.0196,0,0,0,0,0,0,-0.0021,-0.0046,-0.0246,-0.0142,-0.0163,-0.0149,-0.0225,-0.0221,-0.0195,-0.0223,-0.0216,-0.0157,-0.0212,-0.0218,-0.0204,-0.0122,-0.0218,-0.0223,-0.0209,-0.0203,-0.0198,-0.0076,0,0,0,0,0,0,-0.0014,-0.0046,-0.0083,-0.0145,-0.0169,-0.0277,-0.023,-0.0226,-0.0203,-0.0189,-0.0197,-0.0193,-0.0208,-0.0195,-0.0209,-0.0131,-0.0227,-0.0213,-0.0206,-0.02,-0.0085,-0.0067,-0.0052,0,0,0,0,0,-0.0006,-0.0074,-0.0087,-0.0108,-0.0226,-0.0277,-0.0285,-0.0257,-0.0206,-0.0209,-0.0175,-0.0189,-0.0157,-0.02,-0.0216,-0.0137,-0.0217,-0.0208,-0.02,-0.0092,-0.007,-0.0052,0,0,0,0,0,0,0.0014,-0.0073,-0.0086,-0.0183,-0.0208,-0.0256,-0.0267,-0.0242,-0.023,-0.0202,-0.0198,-0.0195,-0.0142,-0.0168,-0.0212,-0.0103,-0.017,-0.0165,-0.0082,-0.0062,-0.0046,-0.0014,-0.0232,0,0,0,0,0,-0.0006,-0.0079,-0.0133,-0.0212,-0.0224,-0.0242,-0.0252,-0.0236,-0.0236,-0.0223,-0.0222,-0.0189,-0.0143,-0.012,-0.013,-0.0117,-0.0151,-0.0054,-0.0038,-0.0024,-0.0003,0.0021,0.0041,-0.0169,-0.0169,-0.0169,0,0,-0.0038,-0.008,-0.0132,-0.021,-0.0238,-0.0252,-0.0234,-0.0253,-0.0229,-0.0233,-0.0205,-0.0169,-0.0131,-0.0078,-0.0052,-0.0074,0.0011,-0.0014,-0.0002,0.0012,0.0032,0.0052,0.0069,-0.0163,-0.0164,-0.0165,0,0,-0.0088,-0.0162,-0.021,-0.0224,-0.0242,-0.0255,-0.0242,-0.027,-0.0238,-0.0223,-0.0168,-0.0077,-0.0077,0.0002,0.0044,0.0132,0.0081,0.0158,0.0276,0.0299,0.0316,0.0331,0.0274,0.0283,0.0186,0.0186,0.0186,0,-0.0116,-0.018,-0.0226,-0.0238,-0.0235,-0.024,-0.0244,-0.0242,-0.0246,-0.0197,-0.0185,-0.0046,-0.0027,0.0127,0.0206,0.0169,0.0151,0.0194,0.0318,0.0332,0.0345,0.0284,0.0292,0.0193,0.0192,0.0191,0.0191,0,-0.0165,-0.0203,-0.0227,-0.0249,-0.0253,-0.0272,-0.0256,-0.0236,-0.0184,-0.0144,-0.0008,0.0043,0.0168,0.0206,0.0244,0.0393,0.0335,0.0315,0.026,0.0373,0.0301,0.0307,0.0203,0.02,0.0198,0.0197,0,0,-0.027,-0.0269,-0.0273,-0.0252,-0.0251,-0.026,-0.0216,-0.0163,-0.0082,-0.0029,0.0099,0.0246,0.0332,0.0391,0.0462,0.0514,0.0586,0.049,0.0488,0.0418,0.0595,0.0534,0.0533,0.0599,0.0602,0.0604,0.0493,0,-0.0289,-0.0297,-0.0287,-0.0272,-0.0266,-0.0233,-0.0183,-0.0118,-0.0042,0.0063,0.0203,0.0339,0.0389,0.0503,0.0573,0.0588,0.0616,0.0615,0.051,0.0506,0.0427,0.0544,0.0614,0.0496,0.0498,0.0498,0.0499,0,-0.0315,-0.0305,-0.0302,-0.0237,-0.0231,-0.0211,-0.01,-0.0051,0.0102,0.0187,0.037,0.0464,0.0641,0.0633,0.0719,0.0724,0.0694,0.0665,0.0659,0.0571,0.046,0.0372,0.0508,0.0508,0.0507,0.0506,0.0506,0,-0.0322,-0.0305,-0.0291,-0.0281,-0.0223,-0.0179,-0.0126,0.0003,0.0091,0.0294,0.0388,0.0584,0.0697,0.0724,0.0739,0.0746,0.0738,0.0712,0.0601,0.059,0.0614,0.06,0.0734,0.0734,0.0734,0.0735,0.0735,0,-0.0331,-0.0319,-0.0288,-0.028,-0.0222,-0.0162,-0.006,0.003,0.02,0.0313,0.0481,0.0594,0.0736,0.0765,0.0745,0.0699,0.0743,0.0643,0.0591,0.0661,0.0655,0.0614,0.0601,0.073,0.0731,0.0732,0.0733,0,-0.0346,-0.0337,-0.0317,-0.0258,-0.0231,-0.0181,-0.0045,0.004,0.0202,0.035,0.0435,0.0628,0.0681,0.072,0.0731,0.0694,0.0643,0.0592,0.0626,0.0571,0.0461,0.0457,0.0474,0.0472,0.047,0.0468,0.0467,0,-0.0357,-0.0353,-0.032,-0.0304,-0.0281,-0.0193,-0.0133,0.0035,0.0124,0.0341,0.0395,0.0538,0.0635,0.0592,0.063,0.0566,0.0551,0.0499,0.0557,0.0504,0.0451,0.0449,0.0447,0.0464,0.0463,0.0463,0.0462,0,-0.0375,-0.0379,-0.0363,-0.0334,-0.0294,-0.0235,-0.0137,-0.0063,0.0126,0.0255,0.0401,0.0483,0.0516,0.0564,0.053,0.0476,0.0543,0.0479,0.0483,0.0537,0.0491,0.044,0.044,0.0455,0.0456,0.0457,0.0458,0,-0.0393,-0.0398,-0.039,-0.0352,-0.0318,-0.0278,-0.0218,-0.0104,0.002,0.0263,0.0284,0.04,0.0516,0.0508,0.0456,0.044,0.0432,0.0405,0.0413,0.0421,0.0463,0.0401,0.0319,0,0,0,0,0,-0.0399,-0.0406,-0.04,-0.0363,-0.0332,-0.0316,-0.0222,-0.0153,0.0004,0.0096,0.0222,0.0263,0.0326,0.0369,0.0338,0.0367,0.0382,0.0322,0.0342,0.0418,0.0426,0.0484,0,0,0,0,0,0,-0.0407,-0.0411,-0.0413,-0.038,-0.0359,-0.0323,-0.0281,-0.0185,-0.0113,0.0052,0.0088,0.0211,0.0257,0.0342,0.0327,0.033,0.0325,0.0385,0.0382,0.0413,0.042,0.0427,0.0489,0,0,0,0,0]},{"header":{"parameterUnit":"m.s-1","parameterCategory":2,"la1":30.2991,"la2":30.254,"lo1":-89.0895,"lo2":-89.0444,"dy":0.0017,"dx":0.0017,"nx":28,"ny":28,"refTime":"2023-04-02T21:00:00:Z","depth":"4","parameterNumber":3,"parameterNumberName":"V-component_of_CURRENTS"},"data":[0,0,0,0,0,0,0,0,0,0,0,0,0,0,0,0,0,0,0,0,0,0,0,0,0,0,0,0,0,0,0,0,0,0,0,0,0,0,0,0,0,0,0,0,0,0,0,0,0,0,0,0,0,0,0,0,0,0,0.049,0.0491,0,0.0518,0.0519,0.0519,0.0505,0.0504,0.0504,0.0503,0.0581,0.0584,0.0587,0,0,0,0,0,0,0,0,0,0,0,0,0,0.0348,0.0351,0.049,0.0491,0.0491,0.0518,0.0519,0.0519,0.0505,0.0504,0.0503,0.0503,0.0581,0.0584,0.0587,0,0,0,0,0,0,0,0,0,0,0,0,0,0.0395,0.0352,0.049,0.0488,0.0488,0.0518,0.0519,0.0519,0.0505,0.0504,0.0503,0.0502,0.058,0.0583,0.0587,0.0633,0,0,0.06,0.0602,0,0,0,0,0,0,0,0,0.0393,0.0401,0.0488,0.0488,0.0488,0.0508,0.0497,0.056,0.0506,0.0498,0.0503,0.0502,0.0563,0.0568,0.0574,0.0636,0.064,0.06,0.0603,0.0604,0.0606,0,0,0,0,0,0,0,0.039,0.0399,0.0501,0.0488,0.0489,0.0459,0.0466,0.0508,0.0536,0.0499,0.0498,0.0502,0.0563,0.057,0.0576,0.0641,0.06,0.0604,0.0606,0.0608,0.0708,0.0708,0,0,0,0,0,0,0.0394,0.0397,0.05,0.0502,0.0438,0.0463,0.047,0.0502,0.0534,0.0538,0.0503,0.0502,0.0563,0.0571,0.0579,0.0641,0.0604,0.0608,0.0611,0.0708,0.0708,0.0708,0,0,0,0,0,0,0.0391,0.0404,0.0499,0.0448,0.0458,0.0467,0.0503,0.0503,0.0534,0.0538,0.0542,0.0536,0.0563,0.0573,0.0629,0.0644,0.061,0.0614,0.0708,0.0708,0.0708,0.0763,0,0,0,0,0,0,0.0387,0.0403,0.0431,0.045,0.0461,0.0512,0.0504,0.0504,0.0537,0.0536,0.0568,0.0572,0.0563,0.0623,0.0633,0.0649,0.0617,0.0707,0.0708,0.0708,0.0761,0.0765,0.0769,0,0,0,0,0,0.0383,0.0412,0.0433,0.0445,0.05,0.0512,0.0515,0.0516,0.054,0.0544,0.0578,0.0572,0.0631,0.0628,0.064,0.0657,0.0707,0.0708,0.0708,0.0759,0.0764,0.0769,0,0,0,0,0,0,0.0372,0.0415,0.0437,0.0484,0.0499,0.051,0.052,0.0542,0.0575,0.0586,0.0602,0.0608,0.0658,0.0653,0.0649,0.068,0.0659,0.0661,0.0693,0.0698,0.0702,0.0702,0.062,0,0,0,0,0,0.0386,0.0421,0.045,0.0492,0.0501,0.0527,0.054,0.0547,0.0575,0.0589,0.0609,0.0632,0.0666,0.0681,0.0699,0.0739,0.0697,0.0746,0.075,0.0753,0.0758,0.0658,0.0653,0.071,0.071,0.071,0,0,0.04,0.0425,0.0451,0.0491,0.0509,0.0531,0.0532,0.0557,0.0588,0.0596,0.0646,0.0663,0.0683,0.0713,0.0731,0.0713,0.0727,0.0754,0.0757,0.076,0.0658,0.0652,0.0647,0.071,0.071,0.071,0,0,0.0425,0.0465,0.0496,0.0508,0.0535,0.0546,0.0565,0.0589,0.0609,0.0677,0.0673,0.0696,0.0765,0.0745,0.0761,0.0802,0.0759,0.0806,0.0825,0.0728,0.0722,0.0716,0.0705,0.0698,0.0797,0.0797,0.0797,0,0.0436,0.0492,0.0503,0.0525,0.0546,0.0564,0.0597,0.0619,0.0659,0.0687,0.07,0.0766,0.0778,0.0801,0.0806,0.0812,0.0772,0.0812,0.0732,0.0725,0.0717,0.0707,0.0698,0.08,0.08,0.08,0.0799,0,0.0469,0.0522,0.0536,0.058,0.0596,0.0625,0.0651,0.0683,0.0735,0.0756,0.0808,0.0812,0.0846,0.0841,0.0857,0.0813,0.081,0.0756,0.0719,0.0715,0.0705,0.0695,0.0804,0.0803,0.0802,0.0802,0,0,0.0478,0.055,0.0558,0.0596,0.0631,0.0649,0.0706,0.0756,0.0799,0.0832,0.0871,0.0917,0.0908,0.092,0.0899,0.0815,0.0755,0.0771,0.0764,0.0762,0.0594,0.0558,0.0544,0.0669,0.0666,0.0664,0.0626,0,0.0507,0.0574,0.0596,0.0665,0.0706,0.0734,0.0788,0.083,0.0868,0.0893,0.0898,0.0939,0.094,0.0958,0.0875,0.0771,0.0722,0.0775,0.0597,0.0594,0.056,0.0526,0.0655,0.0618,0.0615,0.0613,0.0612,0,0.0535,0.0578,0.0658,0.0739,0.0758,0.0806,0.0881,0.0926,0.096,0.0998,0.1012,0.0998,0.095,0.0923,0.0767,0.0796,0.0722,0.0635,0.0629,0.0563,0.0535,0.0608,0.0592,0.0594,0.0595,0.0597,0.0598,0,0.0545,0.0624,0.0698,0.0719,0.0802,0.0865,0.0925,0.0979,0.1036,0.1057,0.1066,0.1018,0.099,0.0861,0.0735,0.0739,0.0521,0.05,0.0419,0.0419,0.0442,0.0448,0.0389,0.0389,0.0389,0.0389,0.0389,0,0.0576,0.063,0.0724,0.0761,0.0854,0.0909,0.1018,0.1059,0.1127,0.1139,0.1121,0.107,0.0956,0.0826,0.0719,0.0538,0.0522,0.0423,0.0382,0.0477,0.0486,0.0438,0.0445,0.0387,0.0388,0.0388,0.0388,0,0.0582,0.0648,0.0718,0.0822,0.0872,0.0941,0.1108,0.1162,0.1218,0.1213,0.1226,0.1122,0.0929,0.0811,0.0589,0.052,0.0353,0.0306,0.0473,0.0443,0.0339,0.0349,0.0217,0.0215,0.0213,0.0211,0.021,0,0.0588,0.0635,0.0746,0.0799,0.0863,0.1,0.1091,0.1221,0.1254,0.12,0.1152,0.1014,0.091,0.0587,0.0469,0.0301,0.0273,0.0254,0.0258,0.0336,0.0309,0.0322,0.0334,0.0207,0.0207,0.0206,0.0206,0,0.0576,0.0622,0.0674,0.0789,0.0894,0.1002,0.1126,0.1136,0.12,0.1264,0.1068,0.0926,0.0698,0.0512,0.0406,0.0271,0.0289,0.0235,0.0238,0.0241,0.0322,0.0301,0.0315,0.0199,0.02,0.0201,0.0201,0,0.0543,0.0575,0.066,0.0759,0.0865,0.0914,0.1,0.102,0.1079,0.102,0.0941,0.0735,0.0685,0.0491,0.0356,0.0256,0.0232,0.0231,0.0234,0.0241,0.0251,0.0359,0.02,0,0,0,0,0,0.0514,0.0563,0.0632,0.0722,0.0814,0.0901,0.0967,0.1032,0.1061,0.092,0.0954,0.0741,0.0519,0.0419,0.03,0.0309,0.0211,0.0171,0.021,0.0164,0.0171,0.0174,0,0,0,0,0,0,0.0503,0.0561,0.061,0.0673,0.0731,0.0841,0.0864,0.0883,0.0821,0.0825,0.0695,0.0756,0.0531,0.0595,0.0313,0.0287,0.0301,0.0119,0.0117,0.016,0.0167,0.0172,0.0178,0,0,0,0,0]}]]